User: anonymous   Login
Location: Dompnac
(44.5644°N, 4.1026°E)
Time: 21:51:05
(UTC+00:00)
Language:

Cosmos 2082 Rocket - Orbit

View from above orbital plane
View from above orbital plane
View from above satellite
View from above satellite

Ground track
Ground track

The orbit data is extracted from the following two-line orbital elements,

1 20625U 90046B   20328.17755956 -.00000123  00000-0 -39021-4 0  9991
2 20625  71.0001  35.0429 0014413 351.5246   8.5630 14.14656564575313
Epoch (UTC): 23 November 2020 04:15:41
Eccentricity: 0.0014413
inclination: 71.0001°
perigee height: 833 km
apogee height: 854 km
right ascension of ascending node: 35.0429°
argument of perigee: 351.5246°
revolutions per day: 14.14656564
mean anomaly at epoch: 8.5630°
orbit number at epoch: 57531

The dashed part of the orbit path shows where the satellite is in the earth's shadow,  

DLR